# Land Stadt Wetter Temperatur Luftdruck Luftfeuchtigkeit Sichtweite Windgeschwindigkeit Windrichtung Ortszeit
1 et Addis Abeba Clouds 20 1024 60 10000 9 90 02.08.2018 14:23
2 tr Alanya Clear 29 1011 33 10000 13 277 02.08.2018 14:22
3 au Alice Springs Clouds 27 1012 32 10000 15 130 02.08.2018 14:21
4 ru Amderma Clouds 5 999 88 10000 20 174 02.08.2018 14:23
5 ru Anadyr Clouds -2 1001 74 10000 25 270 02.08.2018 14:23
6 ch Andermatt Clouds 15 1026 56 10000 7 178 02.08.2018 14:23
7 ad Andorra la Vella Clouds 17 1025 70 10000 7 205 02.08.2018 14:22
8 tr Ankara Clouds 14 1018 66 10000 20 50 02.08.2018 14:23
9 mg Antananarivo Clouds 26 1023 28 10000 28 120 02.08.2018 14:21
10 gr Athen Clouds 23 1019 45 10000 32 10 02.08.2018 14:22
11 ck Avarua Clouds 23 1019 83 10000 15 90 02.08.2018 14:22
12 iq Bagdad Clear 42 1007 9 10000 15 260 02.08.2018 14:22
13 th Bangkok Rain 28 1007 73 10000 7 104 02.08.2018 14:21
14 es Barcelona Rain 19 1023 85 9000 15 330 02.08.2018 14:22
15 de Berlin Clear 16 1024 62 10000 9 210 02.08.2018 14:21
16 ch Bern Clouds 15 1027 84 10000 6 140 02.08.2018 14:23
17 fr Bordeaux Clear 19 1024 77 10000 6 100 02.08.2018 14:21
18 de Braunschweig Clear 17 1023 59 10000 15 250 02.08.2018 14:21
19 de Bremen Clear 14 1023 76 10000 20 220 02.08.2018 14:22
20 ar Buenos Aires Clear 12 1010 74 10000 6 230 02.08.2018 14:22
21 ma Casablanca Mist 22 1014 83 4000 4 260 02.08.2018 14:23
22 us Chicago Rain 8 1026 83 10000 17 360 02.08.2018 14:23
23 pe Cusco Clouds 6 1031 76 10000 2 0 02.08.2018 14:23
24 au Darwin Clouds 31 1008 62 10000 7 250 02.08.2018 14:22
25 us Death Valley Clear 29 1016 18 10000 3 118 02.08.2018 14:22
26 us Denver Clear 7 1028 90 10000 6 69 02.08.2018 14:21
27 qa Doha Clear 34 1006 59 10000 17 50 02.08.2018 14:23
28 de Dresden Clear 18 1016 63 10000 9 230 02.08.2018 14:22
29 ae Dubai Clear 43 1004 3 10000 24 100 02.08.2018 14:21
30 ie Dublin Clouds 15 1013 73 10000 34 260 02.08.2018 14:21
31 de Emden Clouds 14 1020 79 10000 31 215 02.08.2018 14:21
32 ar Esquel Rain 7 999 90 10000 17 285 02.08.2018 14:22
33 us Fairbanks Clouds 6 1013 73 10000 6 80 02.08.2018 14:23
34 de Flensburg Clouds 13 1019 80 10000 30 218 02.08.2018 14:21
35 de Frankfurt Clear 14 1023 72 10000 4 0 02.08.2018 14:22
36 de Freiburg Clouds 19 1022 72 10000 8 259 02.08.2018 14:22
37 gb Glasgow Clouds 10 1010 87 10000 17 230 02.08.2018 14:21
38 de Hamburg Clouds 16 1021 66 10000 26 220 02.08.2018 14:21
39 no Hammerfest Rain 8 980 76 10000 56 240 02.08.2018 14:22
40 de Hannover Clear 16 1024 61 10000 17 210 02.08.2018 14:21
41 vn Hanoi Clouds 30 1011 67 10000 15 135 02.08.2018 14:21
42 de Helgoland Clouds 14 1018 82 10000 47 224 02.08.2018 14:22
43 fi Helsinki Clouds 14 1011 71 10000 28 250 02.08.2018 14:21
44 de Hiddensee Clear 14 1022 65 10000 33 217 02.08.2018 14:21
45 sb Honiara Clouds 27 1011 85 10000 6 124 02.08.2018 14:22
46 us Honolulu Clouds 24 1014 81 10000 6 290 02.08.2018 14:22
47 at Innsbruck Clear 14 1026 72 10000 6 120 02.08.2018 14:23
48 tr Istanbul Clouds 22 1021 43 10000 43 30 02.08.2018 14:23
49 in Jagatsukh Clear 19 1015 66 10000 11 191 02.08.2018 14:22
50 id Jakarta Rain 25 1008 100 5000 15 250 02.08.2018 14:22
51 ru Jakutsk Clouds -2 1019 58 10000 11 310 02.08.2018 14:22
52 af Kabul Clear 22 1012 9 10000 2 67 02.08.2018 14:21
53 eg Kairo Clouds 27 1014 36 10000 13 310 02.08.2018 14:22
54 za Kapstadt Clear 20 1024 49 10000 17 160 02.08.2018 14:22
55 de Kassel Clouds 15 1024 55 10000 13 210 02.08.2018 14:21
56 ua Kiew Clear 17 1029 68 10000 11 340 02.08.2018 14:21
57 cd Kisangani Rain 22 1012 98 10000 9 329 02.08.2018 14:23
58 de Köln Clear 17 1022 60 10000 6 0 02.08.2018 14:21
59 bo La Paz Clouds -2 1037 54 10000 0 0 02.08.2018 14:22
60 es Las Palmas de Gran Canaria Clouds 25 1017 74 10000 25 349 02.08.2018 14:21
61 us Las Vegas Clear 22 1019 27 10000 19 60 02.08.2018 14:21
62 cn Lhasa Clouds 19 1001 29 10000 9 201 02.08.2018 14:22
63 pt Lissabon Clear 22 1018 69 10000 17 20 02.08.2018 14:22
64 gb London Clouds 16 1020 81 10000 22 230 02.08.2018 14:22
65 us Los Angeles Haze 20 1021 83 9656 7 270 02.08.2018 14:22
66 es Madrid Clear 20 1024 59 10000 6 0 02.08.2018 14:23
67 de Magdeburg Clouds 17 1024 44 10000 11 218 02.08.2018 14:22
68 it Mailand Clear 23 1025 62 10000 4 0 02.08.2018 14:21
69 mv Male Clouds 29 1008 74 10000 26 290 02.08.2018 14:23
70 br Manaus Clear 27 1010 65 10000 9 50 02.08.2018 14:21
71 gb Manchester Rain 13 1012 86 6000 22 210 02.08.2018 14:21
72 ph Manila Clouds 30 1007 74 10000 11 100 02.08.2018 14:21
73 ma Marrakesch Clouds 28 1016 36 8000 2 0 02.08.2018 14:23
74 mx Mexiko Stadt Clouds 14 1023 85 10000 9 330 02.08.2018 14:21
75 us Miami Clouds 23 1018 80 10000 9 360 02.08.2018 14:23
76 uy Montevideo Clouds 15 1007 74 10000 11 240 02.08.2018 14:22
77 ca Montreal Clouds 15 1010 83 10000 20 180 02.08.2018 14:22
78 ru Moskau Clouds 12 1022 77 10000 21 271 02.08.2018 14:22
79 in Mumbai Thunderstorm 26 1003 94 1000 19 220 02.08.2018 14:22
80 de München Clouds 15 1023 69 10000 2 319 02.08.2018 14:21
81 jp Nagasaki Clouds 20 1016 56 10000 26 350 02.08.2018 14:21
82 in Nagpur Clouds 29 1006 74 3000 19 150 02.08.2018 14:21
83 ke Nairobi Clouds 23 1021 43 10000 11 120 02.08.2018 14:22
84 bs Nassau Clouds 27 1017 69 10000 17 40 02.08.2018 14:22
85 us New York Fog 15 1014 84 10000 16 360 02.08.2018 14:22
86 fr Nizza Clear 22 1024 69 10000 7 150 02.08.2018 14:22
87 us Nome Rain 4 1007 81 10000 46 250 02.08.2018 14:23
88 de Nürnberg Clouds 14 1026 71 10000 6 100 02.08.2018 14:21
89 gl Nuuk Snow -1 1003 100 10000 9 40 02.08.2018 14:22
90 de Oberstdorf Clouds 17 1023 56 10000 6 327 02.08.2018 14:21
91 no Oslo Clouds 14 1002 1 10000 25 208 02.08.2018 14:23
92 it Palermo Clear 23 1024 52 10000 2 12 02.08.2018 14:22
93 es Palma de Mallorca Clouds 24 1021 65 10000 19 70 02.08.2018 14:22
94 fr Paris Clear 15 1024 69 10000 6 140 02.08.2018 14:22
95 cn Peking Clear 12 1020 39 10000 16 191 02.08.2018 14:23
96 au Perth Clear 15 1022 56 10000 19 210 02.08.2018 14:21
97 pg Port Moresby Clouds 25 1008 88 10000 9 350 02.08.2018 14:21
98 bo Potisi Clear -1 1037 59 10000 6 240 02.08.2018 14:22
99 is Reykjavik Clouds 5 1001 65 10000 20 350 02.08.2018 14:22
100 sa Riad Clear 37 1008 8 10000 4 340 02.08.2018 14:21
101 br Rio de Janeiro Rain 25 1010 83 7000 11 250 02.08.2018 14:22
102 it Rom Clear 22 1023 64 10000 6 0 02.08.2018 14:23
103 fi Rovaniemi Clouds 10 994 71 10000 28 220 02.08.2018 14:21
104 ec San Cristobal Clouds 20 1014 86 10000 20 181 02.08.2018 14:22
105 cl Santiago Clear 12 999 59 10000 4 61 02.08.2018 14:23
106 do Santo Domingo Clouds 25 1016 97 10000 10 350 02.08.2018 14:21
107 kr Seoul Clouds 15 1020 53 10000 13 320 02.08.2018 14:21
108 es Sevilla Clear 25 1018 55 10000 22 80 02.08.2018 14:22
109 cn Shanghai Clouds 18 1017 68 10000 14 25 02.08.2018 14:21
110 bg Sofia Clear 20 1028 40 10000 8 113 02.08.2018 14:21
111 se Stockholm Clouds 14 1010 80 10000 17 210 02.08.2018 14:23
112 de Stuttgart Clouds 19 1024 74 10000 13 150 02.08.2018 14:22
113 ru Surgut Clouds 8 1009 75 10000 18 190 02.08.2018 14:23
114 fj Suva Rain 23 1016 88 10000 6 150 02.08.2018 14:21
115 au Sydney Rain 17 1014 92 10000 2 39 02.08.2018 14:22
116 es Tarifa Clouds 22 1018 75 10000 35 87 02.08.2018 14:21
117 jp Tokio Clouds 13 1011 94 10000 39 360 02.08.2018 14:22
118 de Torfhaus Clouds 10 1025 64 10000 10 220 02.08.2018 14:22
119 de Trier Clear 16 1024 49 10000 8 232 02.08.2018 14:21
120 us Tucson Clear 19 1019 61 10000 20 120 02.08.2018 14:21
121 mn Ulaanbaatar Snow 0 1017 86 8000 7 0 02.08.2018 14:23
122 mn Uliastai Clouds -1 1028 34 10000 19 354 02.08.2018 14:23
123 ar Ushuaia Clouds 5 989 81 10000 6 180 02.08.2018 14:22
124 mx Veracruz Clouds 23 1016 80 10000 5 234 02.08.2018 14:21
125 bg Warna Clear 22 1025 62 10000 19 30 02.08.2018 14:21
126 nz Wellington Clouds 7 1033 79 10000 11 140 02.08.2018 14:23
127 ru Werchojansk Clouds -10 1014 91 10000 11 178 02.08.2018 14:22
128 at Wien Clouds 18 1027 78 10000 34 142 02.08.2018 14:22